Theta_e
314 314 314 314 315 315 315 315 314 314 315 315 315 315 316 317 317 316 315 314 315 315 316 317 317 315 298 291 290 298 316 306 297 296 291 289 288 288 285 287 288 287 288 289 289 288 286
313 314 314 314 314 314 314 314 314 314 315 315 315 315 315 316 316 315 314 313 313 314 315 317 316 310 292 288 296 295 295 296 295 294 291 288 286 288 286 285 283 285 287 286 287 286 286
313 313 313 314 314 314 314 314 314 314 315 315 315 314 314 315 314 314 314 312 312 313 314 316 316 298 294 291 296 292 296 291 293 294 291 292 288 288 286 285 287 285 280 281 281 281 283
313 313 313 313 313 313 313 313 313 314 314 315 315 314 313 313 313 313 313 312 312 314 315 315 313 294 290 296 295 296 293 293 296 294 294 292 289 287 284 285 283 279 278 273 278 281 281
313 313 313 313 313 313 313 313 313 313 313 313 314 313 313 312 312 312 311 311 313 314 314 310 296 292 287 302 295 294 293 292 293 294 293 295 290 283 282 277 275 276 270 273 276 280 280
312 312 312 312 312 313 313 313 312 312 313 313 313 313 312 312 312 311 310 310 312 305 301 299 297 289 292 291 293 294 294 294 291 289 288 286 283 281 280 275 269 271 270 270 271 275 278
311 311 312 312 312 312 313 312 312 312 312 313 313 313 312 312 311 310 304 300 292 292 292 289 289 289 290 294 294 292 293 292 289 285 279 282 278 275 276 277 277 276 274 271 274 278 277
310 310 310 311 311 311 312 312 311 311 312 312 312 312 312 311 310 308 302 302 296 293 287 293 293 292 294 292 289 291 293 287 284 279 280 278 276 279 281 280 278 276 274 273 275 280 277
308 309 309 310 310 310 311 311 311 311 311 312 311 312 311 310 307 299 298 303 308 297 288 291 293 292 292 293 287 288 289 286 282 280 279 276 278 283 281 278 277 275 274 274 274 278 277
308 308 308 309 309 309 309 310 310 310 311 311 311 311 310 309 300 300 299 306 309 299 284 288 290 293 293 292 289 291 290 287 283 279 280 278 281 281 278 278 277 273 277 277 277 273 269
307 307 308 308 308 308 308 309 309 309 310 310 310 310 310 309 302 301 305 309 310 307 276 289 289 297 293 289 289 290 290 289 281 281 281 277 278 278 277 278 279 276 279 276 277 273 270
306 307 307 307 307 307 308 308 308 309 309 310 310 310 310 311 304 305 310 309 305 286 275 288 290 288 289 289 289 288 287 288 286 282 281 278 281 280 278 281 280 281 276 275 273 271 263
306 306 306 307 306 307 307 308 308 308 309 309 308 308 312 312 301 309 308 301 284 275 290 286 287 289 287 286 287 285 283 279 277 276 275 277 277 280 282 277 279 277 271 267 267 264 263
305 305 306 306 306 306 307 307 307 308 308 308 308 307 309 309 307 308 303 290 274 287 286 289 288 288 285 285 286 285 282 278 280 278 275 273 274 278 281 278 276 274 272 265 262 259 262
304 305 305 305 305 306 306 306 307 308 308 308 307 305 302 303 307 306 297 279 282 286 288 288 287 285 284 286 285 283 279 279 279 278 275 274 275 280 282 282 280 275 271 275 271 271 266
304 304 304 305 305 305 306 306 307 307 308 307 302 300 298 303 306 299 290 286 287 289 290 290 285 285 282 283 283 282 280 282 281 281 281 278 274 280 281 282 280 277 279 270 269 259 257
303 303 303 304 305 306 306 306 306 307 307 307 304 297 301 304 305 296 284 285 288 290 291 289 287 285 284 283 283 282 282 282 283 282 281 278 276 276 280 277 275 275 273 273 272 270 260
303 303 303 303 304 305 305 305 306 306 307 304 300 290 301 304 294 286 284 289 293 288 291 290 289 287 285 284 284 283 282 284 285 284 279 279 276 273 276 280 281 278 276 276 268 269 269
303 303 303 303 304 305 305 305 305 306 306 300 296 292 299 302 284 280 287 290 290 288 288 288 286 288 287 284 281 284 284 285 285 284 279 279 275 271 275 276 278 276 277 277 276 272 263
304 303 303 302 303 304 305 305 305 305 306 300 296 287 292 294 292 287 285 286 286 291 289 290 287 288 285 284 285 283 283 285 285 285 289 283 276 275 271 275 277 275 277 277 274 268 264
304 303 303 303 302 304 304 304 304 305 306 301 294 291 291 281 286 287 287 288 286 285 289 288 285 286 285 282 283 282 284 283 284 289 283 280 276 277 278 279 279 278 278 278 272 269 270
305 304 303 303 303 303 304 304 304 305 306 301 295 291 292 290 293 289 289 286 287 287 287 285 284 288 286 283 285 282 284 281 281 282 280 280 277 278 277 280 276 278 279 278 279 271 271
305 304 304 303 303 302 302 303 303 305 305 297 296 297 295 291 288 287 287 289 289 290 289 290 288 286 284 286 287 286 286 286 285 281 279 279 277 277 275 278 277 273 278 278 277 277 272
304 305 304 303 302 301 301 303 303 304 303 297 296 297 293 287 289 290 293 292 292 289 288 289 289 286 288 290 288 286 285 285 284 283 283 279 278 278 275 276 267 279 282 281 277 280 277
303 304 304 303 302 301 302 302 303 304 305 296 295 298 295 286 291 292 292 289 289 289 287 288 289 290 289 287 282 280 280 282 284 284 283 283 279 275 269 271 277 280 280 277 276 276 280
303 304 304 304 302 302 301 302 302 303 304 297 294 297 297 290 289 295 290 289 284 283 285 287 290 290 288 283 280 273 275 281 280 281 284 283 281 276 274 271 267 279 280 281 280 271 280
303 303 303 303 303 302 301 301 302 303 303 296 294 296 293 287 292 292 287 287 288 285 282 285 286 285 285 280 274 277 279 284 278 278 278 279 278 273 273 269 274 282 281 282 274 278 282
303 303 303 303 303 302 301 301 301 302 303 297 294 295 293 289 291 294 294 289 289 287 283 286 284 284 280 277 277 277 278 281 280 281 279 278 274 272 274 269 269 283 280 277 283 281 281
303 303 303 303 303 302 301 301 301 302 303 300 292 295 297 289 290 294 293 293 292 292 287 285 286 284 283 279 277 278 280 278 280 278 282 278 280 277 277 277 283 282 284 284 284 283 282
Wind_Speed
14 13 13 13 13 12 12 11 11 10 10 10 9 9 10 10 11 11 10 10 10 12 14 16 15 10 9 16 5 9 15 16 16 23 19 7 12 6 9 9 26 25 17 18 18 18 17
15 14 14 14 13 13 12 11 11 10 10 10 10 11 10 10 11 11 10 10 11 11 10 11 16 8 6 28 8 10 8 18 18 20 19 10 3 5 9 6 13 8 19 10 9 11 9
15 14 14 14 13 13 12 12 12 11 11 10 11 11 10 10 10 9 10 11 10 8 11 9 11 4 24 9 5 5 12 7 9 19 25 18 3 9 3 23 13 8 15 9 8 2 6
15 15 15 14 14 13 13 13 13 13 12 12 11 11 11 10 9 9 11 11 12 9 10 5 6 7 10 3 4 10 7 11 21 11 23 13 4 13 8 5 8 6 7 5 3 7 4
16 16 16 15 15 14 14 14 14 13 13 11 10 10 10 10 10 11 11 12 8 8 4 5 9 9 5 11 13 5 5 4 7 15 17 18 17 8 9 5 7 10 4 6 9 6 2
17 16 16 16 15 15 14 14 14 13 13 12 10 10 10 9 9 10 11 4 10 9 8 4 4 6 10 6 4 6 5 6 9 6 14 19 12 13 13 10 4 1 2 5 4 4 8
17 17 17 16 16 15 15 14 14 14 13 12 12 10 9 8 10 10 7 5 8 11 12 7 2 7 2 6 4 9 5 8 9 10 8 8 10 14 7 8 8 6 3 2 4 4 6
17 17 17 16 16 15 15 14 14 14 14 13 12 12 9 8 9 7 5 6 3 7 5 5 4 4 2 2 6 12 7 9 9 10 3 8 15 4 4 7 8 7 6 6 3 6 7
17 17 17 17 17 16 15 14 14 13 12 13 12 12 11 9 7 7 3 3 4 5 6 3 2 2 2 8 4 8 6 5 8 12 13 9 1 5 4 6 6 3 6 5 1 2 5
16 17 17 18 17 17 15 15 14 13 11 11 11 10 10 9 10 2 3 8 5 3 6 7 6 5 5 4 6 5 5 4 4 6 6 7 3 5 7 6 3 4 3 3 1 1 3
16 16 17 17 17 16 15 15 14 12 11 10 10 11 10 8 4 4 5 7 5 6 6 1 3 3 4 6 1 9 5 9 5 3 3 1 1 4 6 3 3 4 3 1 1 3 2
16 17 17 17 17 17 16 15 14 12 10 9 9 10 2 5 4 1 6 5 6 9 2 1 2 1 4 5 4 2 9 9 3 7 7 3 0 2 2 2 4 5 5 5 4 3 3
16 17 18 18 18 18 17 16 14 12 10 8 9 9 4 2 2 5 3 6 8 8 1 1 2 3 2 2 3 4 4 8 4 4 6 3 2 2 2 1 5 9 6 3 5 5 7
17 17 18 18 19 19 18 16 14 12 10 8 7 5 5 2 4 3 4 8 8 4 4 2 2 2 2 2 2 3 3 4 4 3 3 3 4 3 2 2 2 3 3 6 4 3 8
17 17 18 18 19 19 19 17 16 13 11 9 4 3 3 4 4 3 7 6 7 3 3 4 2 2 1 0 3 5 3 2 0 2 3 3 3 0 1 2 5 1 4 4 2 1 3
17 17 18 18 19 20 19 18 17 15 12 7 3 3 3 5 3 6 7 4 3 1 2 1 2 2 4 1 1 3 1 1 3 1 2 2 3 2 1 3 3 1 5 2 4 3 6
17 18 18 18 19 19 19 19 18 17 14 1 4 4 4 4 4 6 4 5 3 1 2 2 2 1 2 1 2 1 2 1 3 3 2 3 3 1 3 4 6 1 1 3 4 5 5
16 17 18 18 19 20 20 20 19 18 15 6 3 3 4 3 5 2 3 4 2 2 3 2 3 2 2 2 1 3 5 1 4 3 3 1 4 4 7 2 4 3 4 5 5 3 4
15 16 17 18 19 19 19 19 19 16 12 3 3 2 3 4 4 2 4 1 2 2 1 2 2 1 1 4 1 2 3 1 5 3 5 4 0 4 2 3 4 4 5 4 3 4 6
13 15 17 18 19 19 20 19 19 17 12 3 4 3 5 5 0 7 4 3 2 2 1 2 3 2 2 2 1 3 3 3 3 3 6 4 3 6 7 7 3 4 6 6 6 3 4
11 12 15 16 18 18 19 20 20 19 10 3 3 4 4 3 3 4 4 5 4 4 1 2 0 4 5 3 2 4 3 3 1 6 3 3 3 4 7 12 7 12 14 8 10 8 7
11 11 12 14 16 18 19 20 21 21 6 4 5 4 3 2 2 6 4 7 8 3 6 4 3 4 5 5 8 7 6 4 6 1 5 1 3 2 7 5 4 8 11 10 12 4 11
10 11 11 13 15 18 19 19 21 22 8 3 1 2 5 2 3 5 6 7 9 8 4 3 7 3 4 5 2 1 2 3 6 10 7 5 2 2 6 5 7 7 8 6 4 5 7
9 10 11 12 14 17 18 18 19 20 12 2 1 3 5 3 3 6 3 6 8 8 8 2 4 5 2 3 3 3 2 2 6 4 5 6 3 3 5 7 4 5 2 4 8 8 10
7 8 10 12 13 15 16 17 18 19 18 3 0 2 3 2 2 3 4 5 6 4 3 4 1 1 2 5 3 3 3 3 4 6 7 4 4 1 1 2 11 6 3 6 6 9 7
7 7 8 9 10 11 14 16 16 17 18 3 1 1 2 6 6 0 4 4 5 3 2 2 2 2 6 4 4 3 4 2 3 3 3 5 3 4 1 1 6 5 2 5 4 6 7
8 7 8 8 9 11 12 14 15 16 17 3 1 1 4 3 3 2 4 6 6 4 4 2 4 2 3 3 3 3 4 4 3 5 6 4 3 5 3 4 12 8 5 4 3 9 7
9 8 7 8 8 9 10 12 14 15 15 4 2 2 4 2 4 1 2 3 2 3 6 5 5 2 3 3 4 4 3 4 1 4 7 8 7 5 3 2 12 9 5 9 9 2 5
10 9 8 8 8 7 9 10 12 15 15 4 1 2 1 4 5 2 2 2 3 5 7 3 4 5 6 5 0 3 2 0 3 4 2 4 9 8 13 13 6 11 8 12 5 5 6
Wind_Direction
44 43 42 40 40 40 40 38 33 27 23 21 20 18 15 12 10 7 0 357 358 5 4 1 7 17 41 63 33 320 329 12 24 37 36 43 53 72 72 97 72 83 84 83 93 91 83
41 40 40 38 38 39 39 36 32 28 25 21 21 17 15 16 12 360 355 356 2 359 2 9 360 13 57 63 316 321 39 39 36 40 36 32 49 97 65 91 64 127 89 83 71 82 65
42 39 39 38 37 37 36 32 30 28 25 22 22 17 15 18 9 354 353 350 349 355 357 5 359 72 59 67 359 20 50 7 28 42 42 15 40 84 127 97 131 117 87 72 28 145 154
42 39 38 35 34 35 33 29 29 26 24 22 20 14 12 8 0 1 352 341 340 342 334 8 15 55 82 346 240 29 346 46 49 30 42 16 79 87 51 74 35 45 52 30 344 20 31
41 39 36 34 30 28 29 27 25 24 21 19 20 15 9 4 3 355 341 327 346 349 31 85 41 86 28 325 29 336 34 61 13 36 35 29 43 67 24 66 37 20 36 8 332 19 64
38 37 35 33 29 26 25 24 20 18 15 11 17 14 11 358 350 345 334 343 334 32 1 37 68 51 353 323 329 335 359 54 48 16 29 23 49 58 36 43 143 216 27 300 268 323 52
36 34 33 32 29 24 23 21 16 10 10 8 7 11 8 351 348 348 11 21 19 1 27 95 169 115 292 281 25 4 358 32 21 48 70 24 72 56 84 104 135 136 129 336 299 278 98
35 33 31 30 27 24 19 17 15 10 5 3 3 2 9 354 348 1 65 78 184 172 59 34 78 55 357 71 30 354 39 72 36 49 60 31 52 31 57 78 80 63 42 349 333 4 84
35 31 28 27 25 22 18 15 11 8 4 359 2 1 354 352 347 36 41 41 345 111 89 5 66 78 327 53 39 332 69 104 87 67 57 83 24 19 52 47 58 35 45 330 159 14 38
33 31 28 24 22 19 14 13 9 3 1 1 359 358 349 334 43 301 39 320 325 123 74 318 344 0 18 101 44 3 12 117 64 135 103 80 341 48 31 41 66 30 333 358 70 139 236
30 29 27 23 19 16 13 10 7 2 358 359 359 357 350 49 156 59 293 316 309 54 60 302 358 311 14 91 173 354 359 37 74 40 81 182 75 55 39 345 333 268 331 22 87 100 47
28 25 24 22 17 13 11 9 5 359 0 358 357 352 346 27 44 298 310 338 43 45 59 142 115 34 31 10 40 18 25 36 77 68 42 95 318 112 202 56 29 310 28 44 60 83 7
25 22 20 19 16 13 9 7 3 358 357 0 356 351 70 77 182 321 3 43 40 94 273 200 197 148 125 41 64 59 53 25 46 25 11 354 271 294 151 38 12 22 36 351 349 4 235
22 19 16 14 14 12 9 5 2 355 350 353 354 30 349 71 332 0 53 53 74 214 212 165 125 79 87 50 51 51 79 40 31 64 80 39 343 197 159 168 136 61 99 132 274 275 278
20 17 15 12 11 10 8 6 0 356 348 343 78 12 35 320 355 43 72 57 196 236 311 138 93 121 326 279 147 85 68 131 189 46 94 28 281 114 174 134 110 117 48 180 184 309 326
18 14 13 10 7 7 6 4 0 354 346 335 82 60 336 312 10 58 74 198 181 255 346 86 184 181 208 267 78 79 164 180 162 117 117 192 313 223 138 70 39 28 166 37 15 0 302
17 12 10 8 5 5 4 3 1 354 350 313 60 64 270 340 60 49 134 218 178 205 142 78 175 117 109 164 134 174 156 302 173 163 103 119 121 283 90 187 191 16 1 68 138 141 195
14 12 9 6 4 2 2 2 1 355 348 53 96 63 300 11 57 26 143 186 134 173 64 77 95 87 159 139 152 182 202 239 161 140 131 359 132 276 230 312 177 159 200 150 120 247 225
10 9 7 5 3 360 0 359 358 357 2 113 94 156 320 76 126 301 279 79 84 130 174 135 132 142 197 168 158 154 155 68 146 128 164 180 28 327 329 6 343 222 205 174 109 79 223
5 7 5 4 3 359 359 358 356 353 345 85 93 51 334 48 20 136 153 213 176 23 108 95 143 109 108 177 229 189 158 190 158 105 108 93 163 188 204 221 163 227 201 192 154 155 221
357 1 1 1 360 358 358 356 357 354 342 109 55 240 191 242 290 153 137 160 154 214 297 149 44 195 170 175 178 210 113 111 109 152 87 121 255 206 252 261 255 262 268 221 194 203 202
351 353 357 359 359 359 359 358 359 359 14 75 136 133 11 149 86 118 157 210 178 174 156 242 208 184 192 182 188 209 145 184 197 139 156 135 263 311 287 284 217 267 253 236 232 196 254
343 345 351 358 359 1 1 359 0 4 0 94 309 349 105 282 114 113 216 192 202 148 211 201 194 133 187 230 162 183 154 125 168 155 180 160 186 30 268 324 306 303 243 187 208 192 172
330 340 344 355 359 1 359 359 1 8 22 110 199 103 91 255 164 203 205 183 187 197 166 149 107 141 169 96 73 66 39 135 154 181 147 152 170 165 280 333 348 245 233 178 203 245 212
313 327 340 343 351 355 356 357 360 5 9 74 48 109 130 221 210 274 170 124 98 73 92 121 67 97 99 56 48 10 343 4 221 207 199 167 132 243 177 246 290 298 183 164 163 280 215
293 312 326 331 337 349 353 355 357 1 7 66 36 149 107 119 247 47 141 163 152 139 59 77 41 111 70 83 76 150 232 217 223 118 98 98 95 135 122 315 251 243 173 139 117 289 219
275 294 309 318 328 338 351 353 352 357 4 55 327 30 87 117 261 159 182 182 131 105 127 166 176 85 52 111 107 171 254 210 231 198 169 166 186 194 144 249 281 240 169 160 101 242 193
262 275 287 300 312 327 341 349 349 353 359 28 256 350 112 145 275 321 306 140 97 134 145 190 63 327 58 120 142 216 180 238 261 208 181 172 156 196 156 194 280 155 96 172 215 198 198
249 258 271 282 295 309 329 342 348 348 356 3 42 343 30 120 224 293 280 296 276 192 135 185 182 162 179 94 284 100 215 329 185 263 129 232 190 181 184 215 225 199 207 215 175 187 204